Torna al catalogo

FENGYUN 1C DEB

AttivoSSO
NORAD 39543·DEBRIS·🇨🇳 China

Lanciato May 10, 1999 da Taiyuan Satellite Launch Center

Loading…

Prossimi Passaggi (prossime 24 ore)

TLE

In scadenzaSource: Space-Track

Epoca: Sep 7, 2026, 07:56 UTC

1 39543U 99025EWL 26250.33066966  .00000564  00000-0  45285-3 0  9995
2 39543  99.0206 269.3923 0337926 154.8728 206.9300 13.70718849528644

Traccia FENGYUN 1C DEB in tempo reale con AllMySat

Download on the App Store